Regional Weather Roundup
Issued by NWS

Home | Current Version | Previous Version | Text Only | Print | Product List | Glossary Off
Versions: 1 2 3 4 5 6 7 8 9 10 11 12 13 14 15 16 17 18 19 20 21 22 23 24 25 26 27 28 29 30 31 32 33 34 35 36 37 38 39 40 41 42 43 44 45 46 47 48 49 50

000
ASUS43 KTOP 191108
RWRKS

WEATHER ROUNDUP FOR KANSAS
NATIONAL WEATHER SERVICE GOODLAND KS
600 AM CDT FRI SEP 19 2014

NOTE:  "FAIR" INDICATES FEW OR NO CLOUDS BELOW 12,000 FEET WITH NO
SIGNIFICANT WEATHER AND/OR OBSTRUCTIONS TO VISIBILITY.

KSZ001>006-013>018-027>032-041>047-191200-
NORTHWEST KANSAS

CITY           SKY/WX    TMP DP  RH WIND       PRES   REMARKS
GOODLAND       CLEAR     63  59  87 S14       29.94R
HILL CITY      CLEAR     63  60  90 S6        29.91R
RUSSELL        CLEAR     64  61  90 S13       29.92R
$$

KSZ061>065-074>080-084>089-191200-
SOUTHWEST KANSAS

CITY           SKY/WX    TMP DP  RH WIND       PRES   REMARKS
DODGE CITY     CLEAR     60  56  86 S6        29.97S
ELKHART          N/A     61  56  84 SW10        N/A
GARDEN CITY    CLEAR     59  57  93 S7        29.96S
GREAT BEND     CLEAR     64  59  82 S8        29.96R
LIBERAL        CLEAR     57  54  88 S6        30.00R
PRATT          CLEAR     61  61 100 S7        29.98S
$$

KSZ066>073-081>083-090>101-191200-
SOUTHEAST KANSAS

CITY           SKY/WX    TMP DP  RH WIND       PRES   REMARKS
CHANUTE        MOCLDY    62  61  96 SE8       30.00R
COFFEYVILLE    CLEAR     63  62  97 SE6       29.99R
HUTCHINSON     CLEAR     63  60  90 SE5       29.96R
MEDICINE LODGE   N/A     64  63  96 SE5       29.96R
NEWTON         CLEAR     63  57  82 S8        29.99R
PARSONS        CLEAR     63  63 100 CALM      30.01R
WICHITA INTL   CLEAR     65  62  90 SE7       29.96R
WICHITA JABRA  CLEAR     64  62  93 S7        29.97R
WICHITA MCCONL CLEAR     64  64 100 SE6       29.97R
WINFIELD       CLEAR     64  63  96 SE5       29.98R
$$

KSZ007>012-019>026-033>040-048>060-102>105-191200-
NORTHEAST KANSAS

CITY           SKY/WX    TMP DP  RH WIND       PRES   REMARKS
CONCORDIA      CLEAR     63  63 100 S14       29.93S
EMPORIA        CLOUDY    63  63 100 S9        29.98S FOG
LAWRENCE       CLOUDY    62  60  93 SE7       30.00R FOG
MANHATTAN      CLEAR     62  61  96 CALM      29.96R
MARYSVILLE     CLEAR     61  61 100 S7        29.95S
OLATHE IND     CLOUDY    62  61  96 SE9       30.01S
OLATHE EXE     CLOUDY   N/A N/A N/A S9        30.01R FOG
SALINA         CLEAR     64  61  90 S8        29.95R
TOPEKA BILLARD CLOUDY    64  63  96 SE6       29.99S
TOPEKA FORBES  CLOUDY    63  61  93 SE8       29.98F
$$



USA.gov is the U.S. government's official web portal to all federal, state and local government web resources and services.